This is the latest recevied weather packets stored in our database for station/object W0VI. If no packets are shown the sender has not sent any weather packets the latest 10 day(s).
| Time | Temp. | Humidity | Pressure | Rain* | Wind** | Luminosity | Snow |
|---|---|---|---|---|---|---|---|
| 1778018019 | 8.89° C | 42% | 1010.8 hPa | 0 mm | - | 171 W/m² | - |
| 1778017717 | 8.89° C | 42% | 1010.8 hPa | 0 mm | - | 109 W/m² | - |
| 1778017414 | 9.44° C | 42% | 1010.9 hPa | 0 mm | - | 112 W/m² | - |
| 1778017111 | 9.44° C | 42% | 1010.9 hPa | 0 mm | - | 486 W/m² | - |
| 1778016809 | 9.44° C | 41% | 1010.9 hPa | 0 mm | - | 223 W/m² | - |
| 1778016505 | 8.89° C | 42% | 1011.1 hPa | 0 mm | - | 161 W/m² | - |
| 1778016202 | 8.89° C | 41% | 1010.9 hPa | 0 mm | - | 174 W/m² | - |
| 1778015898 | 8.89° C | 42% | 1010.8 hPa | 0 mm | - | 200 W/m² | - |
| 1778015596 | 8.89° C | 42% | 1011.1 hPa | 0 mm | - | 250 W/m² | - |
| 1778015292 | 8.89° C | 42% | 1010.8 hPa | 0 mm | - | 219 W/m² | - |
| 1778014989 | 8.89° C | 41% | 1010.9 hPa | 0 mm | - | 198 W/m² | - |
| 1778014686 | 8.89° C | 42% | 1010.8 hPa | 0 mm | - | 168 W/m² | - |
| 1778014384 | 8.89° C | 42% | 1011 hPa | 0 mm | - | 138 W/m² | - |
| 1778014081 | 8.89° C | 41% | 1010.9 hPa | 0 mm | - | 195 W/m² | - |
| 1778013779 | 8.89° C | 41% | 1010.9 hPa | 0 mm | - | 217 W/m² | - |
| 1778013475 | 8.89° C | 41% | 1010.8 hPa | 0 mm | - | 220 W/m² | - |
| 1778013173 | 8.89° C | 41% | 1010.9 hPa | 0 mm | - | 202 W/m² | - |
| 1778012868 | 9.44° C | 42% | 1010.9 hPa | 0 mm | - | 229 W/m² | - |
| 1778012564 | 10° C | 40% | 1010.9 hPa | 0 mm | - | 255 W/m² | - |
| 1778012261 | 9.44° C | 41% | 1011 hPa | 0 mm | - | 754 W/m² | - |
| 1778011959 | 9.44° C | 40% | 1011 hPa | 0 mm | - | 344 W/m² | - |
| 1778011657 | 9.44° C | 40% | 1011.1 hPa | 0 mm | - | 468 W/m² | - |
| 1778011354 | 9.44° C | 40% | 1011.2 hPa | 0 mm | - | 814 W/m² | - |
| 1778011049 | 8.89° C | 41% | 1011.1 hPa | 0 mm | - | 309 W/m² | - |
| 1778010747 | 9.44° C | 41% | 1010.9 hPa | 0 mm | - | 264 W/m² | - |
* Rain latest hour (hover to see other rain measurements)
** Current wind speed in m/s (hover to see current wind gust speed)